Location: Newark
(30.1000°N, 109.4667°E)
Time: 04:34:36
(UTC+00:00)

Vanguard 2 Rocket - Pass Details

Date: 27 February 2020
Orbit: 554 x 3326 km, 32.9° (Epoch: 04 April)

Event Time Altitude Azimuth Distance (km) Brightness Sun altitude
Rises 15:50:28 0° 286° (WNW) 6,719 11.6 -63.6°
Reaches altitude 10° 15:55:31 10° 286° (WNW) 5,344 11.0 -64.2°
Enters shadow 16:00:04 22° 284° (WNW) 4,051 10.2 -64.8°
